Oak Ridge, TN

4:00 AM EDT on October 21, 2017 (GMT -0400)
Oak Ridge

Weather History for KOQT - March, 2012

Change the Weather History Date:

Saturday, March 24, 2012

  Actual Average (KTYS) Record (KTYS)
Temperature  
Mean Temperature 60 °F -  
Max Temperature 66 °F 62 °F 86 °F (1929)
Min Temperature 53 °F 38 °F 18 °F (1885)
Degree Days  
Heating Degree Days 6    
Growing Degree Days 10 (Base 50)    
Moisture  
Dew Point 53 °F    
Average Humidity 83    
Maximum Humidity 100    
Minimum Humidity 52    
Precipitation  
Precipitation 1.61 in - - ()
Sea Level Pressure  
Sea Level Pressure 29.88 in    
Wind  
Wind Speed 4 mph (SSW)    
Max Wind Speed 15 mph    
Max Gust Speed 29 mph    
Visibility 7 miles    
Events Rain    
Averages and records for this station are not official NWS values.
T = Trace of Precipitation, MM = Missing Value Source: NWS Daily Summary

Daily Weather History Graph

Daily Weather History Graph

Search for Another Location

Airport or City:

Trip Planner

Search our weather history database for the weather conditions in past years. The results will help you decide how hot, cold, wet, or windy it might be!

Date:

Astronomy

Mar. 24, 2012 Rise Set
Actual Time 7:34 AM EDT 7:52 PM EDT
Civil Twilight 7:08 AM EDT 8:18 PM EDT
Nautical Twilight 6:38 AM EDT 8:48 PM EDT
Astronomical Twilight 6:07 AM EDT 9:18 PM EDT
Moon 8:17 AM EDT (3/24) 10:04 PM EDT (3/24)
Length of Visible Light 13h 09m
Length of Day
12h 18m
Waxing Crescent, 4% of the Moon is Illuminated
Mar 24
Waxing Crescent
Mar 30
First Quarter
Apr 6
Full
Apr 13
Last Quarter
Apr 21
New

Hourly Weather History & Observations

Time (EDT) Temp. Dew Point Humidity Pressure Visibility Wind Dir Wind Speed Gust Speed Precip Events Conditions
12:05 AM 66.2 °F 57.2 °F 73% 29.91 in 10.0 mi SSW 3.5 mph - N/A   Overcast
12:17 AM 66.2 °F 57.2 °F 73% 29.90 in 10.0 mi South 6.9 mph - N/A   Overcast
12:53 AM 66.0 °F 57.9 °F 75% 29.86 in 10.0 mi SSE 5.8 mph - 0.00 in Rain Light Rain
1:24 AM 64.4 °F 57.2 °F 77% 29.91 in 1.8 mi SW 15.0 mph 28.8 mph 0.03 in Rain Heavy Rain
1:37 AM 60.8 °F 53.6 °F 77% 29.89 in 3.0 mi SSE 8.1 mph 23.0 mph 0.27 in Rain Rain
1:53 AM 60.1 °F 54.0 °F 80% 29.87 in 5.0 mi South 5.8 mph 16.1 mph 0.31 in Rain Light Rain
2:16 AM 57.2 °F 55.4 °F 94% 29.91 in 1.8 mi West 8.1 mph 16.1 mph 0.10 in Rain Heavy Rain
2:27 AM 57.2 °F 55.4 °F 94% 29.90 in 0.8 mi NW 3.5 mph - 0.44 in Rain Rain
2:37 AM 57.2 °F 55.4 °F 94% 29.90 in 1.2 mi Calm Calm - 0.55 in Rain Heavy Rain
2:48 AM 57.2 °F 55.4 °F 94% 29.89 in 3.0 mi Variable 3.5 mph - 0.63 in Rain Rain
2:53 AM 57.0 °F 55.9 °F 96% 29.88 in 4.0 mi Calm Calm - 0.65 in Rain Rain
3:36 AM 57.2 °F 57.2 °F 100% 29.90 in 9.0 mi Calm Calm - 0.08 in Rain Light Rain
3:53 AM 57.9 °F 57.0 °F 97% 29.91 in 9.0 mi South 3.5 mph - 0.09 in Rain Light Rain
4:08 AM 57.2 °F 57.2 °F 100% 29.89 in 6.0 mi North 3.5 mph - 0.02 in Rain Light Rain
4:53 AM 57.0 °F 54.0 °F 89% 29.87 in 10.0 mi Calm Calm - 0.04 in   Overcast
5:53 AM 55.9 °F 55.0 °F 97% 29.88 in 10.0 mi Calm Calm - N/A   Overcast
6:53 AM 57.0 °F 54.0 °F 89% 29.90 in 10.0 mi SSE 4.6 mph - N/A   Overcast
7:19 AM 57.2 °F 55.4 °F 94% 29.92 in 10.0 mi Calm Calm - N/A   Overcast
7:36 AM 57.2 °F 55.4 °F 94% 29.93 in 10.0 mi Calm Calm - 0.00 in Rain Light Rain
7:53 AM 57.0 °F 55.0 °F 93% 29.90 in 10.0 mi Calm Calm - 0.00 in   Mostly Cloudy
8:53 AM 57.0 °F 55.0 °F 93% 29.91 in 10.0 mi Calm Calm - N/A   Partly Cloudy
9:53 AM 61.0 °F 54.0 °F 78% 29.90 in 10.0 mi Variable 3.5 mph - N/A   Clear
10:53 AM 63.0 °F 52.0 °F 67% 29.90 in 10.0 mi SSW 3.5 mph - N/A   Mostly Cloudy
11:10 AM 62.6 °F 51.8 °F 68% 29.92 in 10.0 mi South 5.8 mph - N/A   Overcast
11:53 AM 62.1 °F 51.1 °F 67% 29.88 in 10.0 mi SW 4.6 mph - N/A   Overcast
12:53 PM 66.0 °F 48.0 °F 52% 29.85 in 10.0 mi Variable 6.9 mph - N/A   Mostly Cloudy
1:53 PM 64.9 °F 46.9 °F 52% 29.83 in 10.0 mi WSW 8.1 mph - N/A   Overcast
2:21 PM 55.4 °F 51.8 °F 88% 29.87 in 1.0 mi West 6.9 mph - 0.06 in Rain Rain
2:28 PM 55.4 °F 51.8 °F 88% 29.87 in 3.0 mi West 5.8 mph - 0.07 in Rain Light Rain
2:53 PM 57.0 °F 52.0 °F 83% 29.86 in 10.0 mi SW 3.5 mph - 0.07 in   Overcast
3:53 PM 61.0 °F 54.0 °F 78% 29.82 in 10.0 mi Variable 3.5 mph - 0.00 in   Mostly Cloudy
4:53 PM 64.0 °F 50.0 °F 60% 29.82 in 10.0 mi Calm Calm - N/A   Scattered Clouds
5:53 PM 62.1 °F 51.1 °F 67% 29.83 in 3.0 mi NW 3.5 mph - 0.01 in Rain Rain
6:53 PM 61.0 °F 52.0 °F 72% 29.84 in 10.0 mi NE 5.8 mph - 0.01 in   Overcast
7:53 PM 57.0 °F 48.9 °F 74% 29.87 in 10.0 mi Calm Calm - N/A   Overcast
8:45 PM 55.4 °F 50.0 °F 82% 29.88 in 10.0 mi SSW 9.2 mph - 0.01 in Rain Light Rain
8:53 PM 54.0 °F 48.9 °F 83% 29.88 in 4.0 mi SSW 10.4 mph 19.6 mph 0.02 in Rain Rain
8:57 PM 53.6 °F 48.2 °F 82% 29.88 in 1.8 mi SSW 9.2 mph 19.6 mph 0.03 in Rain Heavy Rain
9:20 PM 53.6 °F 48.2 °F 82% 29.89 in 2.0 mi ESE 4.6 mph - 0.37 in Rain Heavy Rain
9:30 PM 53.6 °F 50.0 °F 88% 29.89 in 4.0 mi Calm Calm - 0.41 in Rain Rain
9:53 PM 53.1 °F 51.1 °F 93% 29.88 in 10.0 mi East 3.5 mph - 0.41 in   Overcast
10:53 PM 53.1 °F 51.1 °F 93% 29.89 in 10.0 mi Calm Calm - N/A   Overcast
11:53 PM 53.1 °F 51.1 °F 93% 29.89 in 10.0 mi WSW 3.5 mph - N/A   Overcast